THORAD AGENA D DEB

Satellite information

Favourite Embed

Satellite Type and Status

DEBRISIN ORBIT

Key statistics

Satellite THORAD AGENA D DEB at a glance.

Uptime

20481

Days in orbit

Revolutions

≈ 13.9

Per day

Orbit

LEO

Low Earth Orbit

Inclination

70.1

Latest

Satellite identification and parameters

Extended collection of information and parameters for THORAD AGENA D DEB.

Object identification

Identified? True

Debris? True

Object name: THORAD AGENA D DEB

International designator: 1969-082AV

Object number (NORAD): 4177

Object ID (CCSDS): 4177

Country: UNITED STATES OF AMERICA (US)

Current information (Y/N): Y

RCS size: SMALL

Orbital parameters

Period: 103.438 minutes

Inclination: 70.0751 deg

SMA: 7299.293 km

Apoapsis: 1006.577 km

Periapsis: 835.74 km

RAAN: 353.1314 deg

Eccentricy: 0.01170229

Argument of periapsis: 301.2648 deg

Mean anomaly: 57.7035 deg

Mean motion: 13.92135647 rev/day

Mean motion (dot): 0.00001306 rev/day2

B* drag term: 0.0010028683 1/REarth

Two-line elements (TLE)

Creation date: Oct. 27, 2025, 2:46 a.m.

Reference frame: TEME

Reference center: EARTH

Epoch: Oct. 26, 2025, 9:01 p.m. UTC

TLE line 0: 0 THORAD AGENA D DEB

TLE line 1: 1 04177U 69082AV 25299.87629676 .00001306 00000-0 10029-2 0 9996

TLE line 2: 2 04177 70.0751 353.1314 0117023 301.2648 57.7035 13.92135647823718

Live tracking on map

Real-time ground track for satellite THORAD AGENA D DEB.

In-orbit conjunctions

A list of the most updated potential collisions computed for object THORAD AGENA D DEB.

Target Orbit TCA Probability of collision Miss distance Type
CZ-6A DEB LEO 2025-01-25 16:48:57 0.000390983 188.0 (m) DEBRIS

Associated space launch

Poppy was the follow-on ELINT system, which succeeded the Grab ELINT satellite system.

THORAD AGENA D DEB was lifted into orbit during the mission ‘Thorad SLV-2G Agena D | Poppy 8A,B,C,D’, on board a Thorad SLV-2G Agena D space rocket.

The launch took place on Sept. 30, 1969, 1:40 p.m. from Space Launch Complex 1W.

For more information about the launch, click the button.

Launch to space Thorad SLV-2G Agena D | Poppy 8A,B,C,D
Thorad SLV-2G Agena D | Poppy 8A,B,C,D

Agency: N/A

Status: Launch Successful

Launch date: Sept. 30, 1969, 1:40 p.m. UTC

Rocket: Thorad SLV-2G Agena D

Launch pad: Space Launch Complex 1W

Location: Vandenberg SFB, CA, USA

...

Latest news about this satellite

There are no fresh news available about this satellite. Check back as we update our databases every day.


Newsletter sign-up

Weekly statistics, charts and insights to help you stay on top of the space industry.